Flag for Canada Weather past 2 weeks in Chatham-Kent, Ontario, Canada

Now
55 °F

Cool.


Feels Like: 55 °F
Forecast: 53 / 63 °F
Wind: 3 mph from West

Location: Erieau

Current Time: Sep 16, 2014 at 2:04:18 AM

Latest Report: Sep 16, 2014 at 1:00 AM


Visibility: N/A

Pressure: 30.06 "Hg

Humidity: 91%

Dew point: 52 °F

Location of Chatham-KentLocation

Historic Weather in Chatham-Kent — Graph

°F

Chatham-Kent temperature yesterday

Maximum temperature yesterday: 64 °F (at 11:00 AM)
Minimum temperature yesterday: 56 °F (at 11:00 PM)
Average temperature yesterday: 60 °F

Past Weeks' High & Low Weather Summary

 TemperatureHumidityPressure
High80 °F (Sep 5, 5:00 PM)95% (Sep 1, 1:00 AM)30.34 "Hg (Sep 1, 1:00 AM)
Low50 °F (Sep 13, 11:00 PM)52% (Sep 7, 4:00 PM)29.60 "Hg (Sep 10, 11:00 PM)
Average67 °F78%30.04 "Hg
* Reported Sep 1 1:00 AM — Sep 16 1:00 AM, Chatham-Kent, Weather by CustomWeather, © 2014

Note: Actual official high and low records may vary slightly from our data, if they occured in-between our weather recording intervals... More about our weather records

Advertising

Chatham-Kent weather history for previous 24 hours

 ConditionsComfort  
Time TempWeatherWind HumidityBarometerVisibility
1:00 AM
Sep 16
55 °FCool.3 mph91%30.06 "HgN/A
12:00 AM55 °FCool.3 mph86%30.06 "HgN/A
11:00 PM
Sep 15
56 °FCool.2 mph88%30.06 "HgN/A
10:00 PM57 °FCool.3 mph75%30.08 "HgN/A
9:00 PM59 °FCool.6 mph71%30.07 "HgN/A
8:00 PM61 °FCool.3 mph70%30.06 "HgN/A
7:00 PM60 °FCool.1 mph74%30.05 "HgN/A
6:00 PM60 °FCool.No wind75%30.06 "HgN/A
5:00 PM60 °FCool.1 mph78%30.09 "HgN/A
4:00 PM61 °FCool.3 mph75%30.10 "HgN/A
3:00 PM62 °FCool.3 mph66%30.10 "HgN/A
2:00 PM63 °FMild.6 mph64%30.12 "HgN/A
1:00 PM63 °FMild.6 mph62%30.14 "HgN/A
12:00 PM63 °FMild.6 mph61%30.14 "HgN/A
11:00 AM64 °FMild.5 mph65%30.17 "HgN/A
10:00 AM61 °FCool.2 mph74%30.17 "HgN/A
9:00 AM62 °FCool.7 mph70%30.18 "HgN/A
8:00 AM61 °FCool.10 mph72%30.19 "HgN/A
7:00 AM62 °FCool.5 mph63%30.19 "HgN/A
6:00 AM61 °FRefreshingly cool.5 mph60%30.19 "HgN/A
5:00 AM61 °FCool.6 mph62%30.19 "HgN/A
4:00 AM60 °FRefreshingly cool.5 mph59%30.19 "HgN/A
3:00 AM60 °FRefreshingly cool.3 mph60%30.20 "HgN/A
2:00 AM57 °FCool.1 mph66%30.21 "HgN/A
Weather by CustomWeather, © 2014

See weather overviewHow to use our weather pages